Time,TemperatureF,DewpointF,PressureIn,WindDirection,WindDirectionDegrees,WindSpeedMPH,WindSpeedGustMPH,Humidity,HourlyPrecipIn,Conditions,Clouds,dailyrainin,SoftwareType,DateUTC
2014-10-02 00:00:00,60.7,54.9,30.32,North,-999,-999.0,-999.0,81,0.00,,,0.00,,2014-10-01 23:00:00,
2014-10-02 00:15:00,60.2,55.3,30.32,North,-999,-999.0,-999.0,84,0.00,,,0.00,,2014-10-01 23:15:00,
2014-10-02 00:30:00,60.4,55.2,30.33,North,-999,-999.0,-999.0,83,0.00,,,0.00,,2014-10-01 23:30:00,
2014-10-02 00:45:00,60.6,55.5,30.33,North,-999,-999.0,-999.0,83,0.00,,,0.00,,2014-10-01 23:45:00,
2014-10-02 01:00:00,60.2,55.3,30.33,North,-999,-999.0,-999.0,84,0.00,,,0.00,,2014-10-02 00:00:00,
2014-10-02 01:15:00,60.2,55.5,30.33,North,-999,-999.0,-999.0,84,0.00,,,0.00,,2014-10-02 00:15:00,
2014-10-02 01:30:00,60.2,55.7,30.33,North,-999,-999.0,-999.0,85,0.00,,,0.00,,2014-10-02 00:30:00,
2014-10-02 01:45:00,60.0,55.4,30.33,North,-999,-999.0,-999.0,85,0.00,,,0.00,,2014-10-02 00:45:00,
2014-10-02 02:00:00,59.8,55.2,30.33,North,-999,-999.0,-999.0,85,0.00,,,0.00,,2014-10-02 01:00:00,
2014-10-02 02:15:00,59.7,54.9,30.33,North,-999,-999.0,-999.0,84,0.00,,,0.00,,2014-10-02 01:15:00,
2014-10-02 02:30:00,59.3,55.2,30.33,North,-999,-999.0,-999.0,86,0.00,,,0.00,,2014-10-02 01:30:00,
2014-10-02 02:45:00,59.6,55.4,30.33,North,-999,-999.0,-999.0,86,0.00,,,0.00,,2014-10-02 01:45:00,
2014-10-02 03:00:00,59.7,55.3,30.33,North,-999,-999.0,-999.0,86,0.00,,,0.00,,2014-10-02 02:00:00,
2014-10-02 03:15:00,59.2,55.4,30.33,North,-999,-999.0,-999.0,87,0.00,,,0.00,,2014-10-02 02:15:00,
2014-10-02 03:30:00,59.8,55.6,30.33,North,-999,-999.0,-999.0,86,0.00,,,0.00,,2014-10-02 02:30:00,
2014-10-02 03:45:00,59.8,55.6,30.34,North,-999,-999.0,-999.0,86,0.00,,,0.00,,2014-10-02 02:45:00,
2014-10-02 04:00:00,60.0,55.8,30.34,North,-999,-999.0,-999.0,86,0.00,,,0.00,,2014-10-02 03:00:00,
2014-10-02 04:15:00,60.5,56.1,30.34,North,-999,-999.0,-999.0,86,0.00,,,0.00,,2014-10-02 03:15:00,
2014-10-02 04:30:00,60.2,56.1,30.34,North,-999,-999.0,-999.0,86,0.00,,,0.00,,2014-10-02 03:30:00,
2014-10-02 04:45:00,60.2,56.0,30.34,North,-999,-999.0,-999.0,86,0.00,,,0.00,,2014-10-02 03:45:00,
2014-10-02 05:00:00,60.4,56.1,30.35,North,-999,-999.0,-999.0,86,0.00,,,0.00,,2014-10-02 04:00:00,
2014-10-02 05:15:00,60.5,56.5,30.34,North,-999,-999.0,-999.0,87,0.00,,,0.00,,2014-10-02 04:15:00,
2014-10-02 05:30:00,60.7,56.9,30.35,North,-999,-999.0,-999.0,87,0.00,,,0.00,,2014-10-02 04:30:00,
2014-10-02 05:45:00,60.6,56.8,30.35,North,-999,-999.0,-999.0,87,0.00,,,0.00,,2014-10-02 04:45:00,
2014-10-02 06:00:00,60.5,56.5,30.34,North,-999,-999.0,-999.0,87,0.00,,,0.00,,2014-10-02 05:00:00,
2014-10-02 06:15:00,60.0,56.9,30.34,North,-999,-999.0,-999.0,89,0.00,,,0.00,,2014-10-02 05:15:00,
2014-10-02 06:30:00,59.9,56.8,30.35,North,-999,-999.0,-999.0,90,0.00,,,0.00,,2014-10-02 05:30:00,
2014-10-02 06:45:00,60.6,57.3,30.35,North,-999,-999.0,-999.0,89,0.00,,,0.00,,2014-10-02 05:45:00,
2014-10-02 07:00:00,60.4,56.7,30.35,North,-999,-999.0,-999.0,88,0.00,,,0.00,,2014-10-02 06:00:00,
2014-10-02 07:15:00,59.9,56.2,30.36,North,-999,-999.0,-999.0,88,0.00,,,0.00,,2014-10-02 06:15:00,
2014-10-02 07:30:00,60.2,56.7,30.36,North,-999,-999.0,-999.0,88,0.00,,,0.00,,2014-10-02 06:30:00,
2014-10-02 07:45:00,59.8,57.0,30.37,North,-999,-999.0,-999.0,90,0.00,,,0.00,,2014-10-02 06:45:00,
2014-10-02 08:00:00,60.5,57.4,30.36,North,-999,-999.0,-999.0,90,0.00,,,0.00,,2014-10-02 07:00:00,